Skip Page Navigation
NASA JPL Caltech
NASA Logo - Jet Propulsion Laboratory + View the NASA Portal
+ Near-Earth Object (NEO) Program
Search JPL
JPL Home Earth Solar System Stars & Galaxies Technology
JPL Solar System Dynamics
BODIES ORBITS EPHEMERIDES TOOLS PHYSICAL DATA DISCOVERY FAQ SITE MAP
JPL Small-Body Database Browser
Search: [ help ]  
267221 (2001 AD2)
Classification: Apollo [NEO, PHA]          SPK-ID: 2267221
Ephemeris | Orbit Diagram | Orbital Elements | Physical Parameters | Discovery Circumstances | Close-Approach Data ]

[ hide orbit diagram ]
Orbit Diagram
Note: Make sure you have Java enabled on your browser to see the applet. This applet is provided as a 3D orbit visualization tool. The applet was implemented using 2-body methods, and hence should not be used for determining accurate long-term trajectories (over several years or decades) or planetary encounter circumstances. For accurate long-term ephemerides, please instead use our Horizons system.
Orbit Viewer

Additional Notes: the orbits shown in the applet are color coded. The planets are white lines, and the asteroid/comet is a blue line. The bright white line indicates the portion of the orbit that is above the ecliptic plane, and the darker portion is below the ecliptic plane. Likewise for the asteroid/comet orbit, the light blue indicates the portion above the ecliptic plane, and the dark blue the portion below the ecliptic plane.

Orbit Viewer applet originally written and kindly provided by Osamu Ajiki (AstroArts), and further modified by Ron Baalke (JPL).


Orbital Elements at Epoch 2456400.5 (2013-Apr-18.0) TDB
Reference: JPL 47 (heliocentric ecliptic J2000)
 Element Value Uncertainty (1-sigma)   Units 
e .659705134716147 4.0359e-07  
a 1.039016196950814 2.0021e-08 AU
q .3535718767691185 4.261e-07 AU
i 1.659079915794851 6.1581e-06 deg
node 211.2810605952429 0.00025572 deg
peri 111.142286891581 0.00025415 deg
M 290.2461665581243 9.358e-05 deg
tp 2456475.454460514965
(2013-Jul-01.95446052)
0.00010261 JED
period 386.8404710383714
1.06
1.1181e-05
3.061e-08
d
yr
n .9306161763108054 2.6899e-08 deg/d
Q 1.724460517132509 3.3229e-08 AU
  Orbit Determination Parameters
   # obs. used (total)      235  
   data-arc span      4455 days (12.20 yr)  
   first obs. used      2001-01-02  
   last obs. used      2013-03-15  
   planetary ephem.      DE405  
   SB-pert. ephem.      SB405-CPV-2  
   condition code      0  
   fit RMS      .50062  
   data source      ORB  
   producer      Otto Matic  
   solution date      2013-Apr-29 15:41:10  

Additional Information
 Earth MOID = .00877508 AU 
 T_jup = 5.679 
[ show covariance matrix ]

Ephemeris | Orbit Diagram | Orbital Elements | Physical Parameters | Discovery Circumstances | Close-Approach Data ]

Physical Parameter Table
Parameter Symbol Value Units Sigma Reference Notes
absolute magnitude H 19.376 mag .82983 47 autocmod 2.5c

267221 (2001 AD2)          Discovered 2001-Jan-02 by LINEAR at Socorro (704)
Reference: 20110319/Numbers.arcLast Updated: 2011-03-23

[ show close-approach data ]
Ephemeris | Orbit Diagram | Orbital Elements | Physical Parameters | Discovery Circumstances | Close-Approach Data ]
ABOUT SSD CREDITS/AWARDS PRIVACY/COPYRIGHT GLOSSARY LINKS
FirstGov 2013-May-21 15:40 UT
(server date/time)  
NASA Home Page
Site Manager:   Donald K. Yeomans
Webmaster  Alan B. Chamberlin